Погода Каменское

Погода Каменское : погода сейчас, прогноз погоды и архив. Всё, что Вы хотите узнать о погоде Каменское!

Поиск расширенной информации на нашем сайте:

Другие новости

Новости СМИ2

Главная страница сайта

Новости сайта

03.07.2017

Напоминаем, что на нашем специализированном сайте Метеоцентр.Азия вы можете получить высокодетализированные автоматические прогнозы погоды по пунктам России, СНГ и мира в авиационном формате (включающие направление и скорость ветра, видимость, явления погоды, количество и форму облачности, нижнюю и верхнюю границу облачности).


Погода Каменское - сегодня

Время (UTC), дата Ветер
(°,м/с) 
Видим.   Явления Облачность Т
(°С)
Тd
(°С)
f(%) Тe
(°С)
Pmin
(гПа)
dP
(гПа)
Po
(мм)
O2
(г/м3)
Тmin Tmax R s Состояние
почвы
18 20.02.18 260 (З) 7{11}  н/о    н/о 
-14.4 -17.4 78 -21  1004.4  3.6  749  320           
00 21.02.18 250 (З) н/о    н/о 
-14.5 -19 69 -18  1010.8  754  322  -15.6         
03 21.02.18 240 (ЮЗ) н/о    н/о 
-14.1 -19 66 -20  1012.3  1.4  755  322           
06 21.02.18 230 (ЮЗ) н/о    н/о 
-14.5 -18.9 69 -18  1013.5  1.2  756  323           
09 21.02.18 290 (З) н/о    н/о 
-15.8 -19.5 73 -20  1014.3  0.8  757  325    -13.6       
12 21.02.18 270 (З) н/о    н/о 
-16.9 -20 77 -19  1014.7  0.8  757  327           
15 21.02.18 290 (З) н/о    н/о 
-19.6 -22.2 80 -24  1015.2  0.4  757  330           
18 21.02.18 290 (З) н/о    н/о 
-19.6 -22.2 80 -24  1015.2  0.4  758  331           
21 21.02.18 280 (З) н/о    н/о 
-22.9 -25.8 77 -29  1017.1  1.2  759  335  -23.5         
00 22.02.18 290 (З) н/о    н/о 
-20.3 -23 79 -25  1018.1  1.1  759  332           
03 22.02.18 280 (З) н/о    н/о 
-17.4 -20.2 79 -23  1018.8  0.8  760  329           
06 22.02.18 280 (З) н/о    н/о 
-20.2 -23.1 78 -25  1020.5  1.6  761  333           
09 22.02.18 110 (В) н/о    н/о 
-21.5 -24.3 78 -22  1022.6  763  335    -17.1       
12 22.02.18 110 (В) н/о    н/о 
-23.7 -26.7 76 -24  1024.3  1.7  764  339           
15 22.02.18 130 (ЮВ) н/о    н/о 
-24.7 -27.8 75 -30  1025.6  1.3  765  341           
18 22.02.18 120 (ЮВ) н/о    н/о 
-25.1 -28.3 75 -30  1026.4  0.7  766  342           
21 22.02.18 120 (ЮВ) н/о    н/о 
-25.7 -29 74 -31  1027.3  766  343  -26.3         
00 23.02.18 110 (В) н/о    н/о 
-22 -25 77 -29  1027.2  0.1  766  338           
03 23.02.18 090 (В) н/о    н/о 
-20.7 -25.5 65 -26  1026.1  -1  765  335           
06 23.02.18 090 (В) н/о    н/о 
-20.5 -24.7 69 -26  1024.8  -1.2  764  335           
09 23.02.18 100 (В) н/о    н/о 
-19.6 -23.9 69 -25  1023.9  -0.9  764  333    -19.6       
12 23.02.18 100 (В) н/о    н/о 
-17.7 -21.1 75 -22  1022.1  -1.7  763  330           
15 23.02.18 080 (В) 6{10}  н/о    н/о 
-14.5 -18.1 74 -21  1020.9  -1.1  762  326           
18 23.02.18 080 (В) 5{14}  н/о    н/о 
-13.6 -17.8 71 -19  1020.8  -0.1  762  324           
00 24.02.18 070 (В) 5{12}  н/о    н/о 
-13.7 -19.7 61 -19  1022.3  0.8  763  325           
Время (UTC), дата Ветер
(°,м/с) 
Видим.   Явления Облачность Т
(°С)
Тd
(°С)
f(%) Тe
(°С)
Pmin
(гПа)
dP
(гПа)
Po
(мм)
O2
(г/м3)
Тmin Tmax R s Состояние
почвы

Для получения пояснительной информации подведите курсор к названию столбца.

ПОГОДА Каменское - архив

Всё, что Вы хотите узнать о погоде Каменское - удобно и подробно!

Выберите нужную дату (начиная с 1 января 2015* года) и нажмите кнопку "Найти".
Будут отображены архивные сводки погоды по пункту Каменское, начиная с указанной даты.


Отображать данные в формате CSV (для использования в таблицах Excel)


Внимание! Наш архив погоды предназначен исключительно для личного некоммерческого использования в познавательных целях. Если Вам необходимы официальные справки о состоянии погоды (для производственных, юридических, коммерческих и т.п. целей), обращайтесь в органы Росгидромета.

*Примечание: данная дата относится к архиву по метеостанциям СССР (Россия, СНГ, Балтия).
Архив по метеостанциям Зарубежной Европы и Азии (кроме Китая) хранится 10 дней, по другим регионам земного шара (Китай, Африка, Америка, Австралия, Океания) - 1 день.

Каменское - район местоположения метеостанции


Название, широта, долгота, высота метеостанции:
Каменское 62.43°ш. 166.08°д. 10 м над ур. моря [Российская Федерация]

Дополнительная информация

В oтличие oт бoльшинства пoгoдных сайтoв мы публикуем пoдрoбную метеoинфoрмацию в детальнoм прoфессиoнальнoм фoрмате.

Характеристики температуры и влажнoсти вoздуха измеряются на высoте 2 м в тени вдали oт зданий и деревьев.
Скoрoсть ветра измеряется на высoте 10 м (на урoвне рoста челoвека скoрoсть ветра ниже в 1.5-2 раза). Если метеoстанция нахoдится в гoрoде или в лесу, тo скoрoсть ветра занижена на 2-4 м/с пo сравнению с oткрытым местoм. Скoрoсть ветра над акватoриями крупных рек и oзёр, а также на вершинах хoлмoв на 2-5 м/с выше, чем в oбычных услoвиях.
Атмoсфернoе давление в разных тoчках местнoсти мoжет значительнo oтличаться oт давления на метеoстанции, в зависимoсти oт услoвий рельефа (при пoдъёме на 10 м давление пoнижается примернo на 1 мм рт.ст.).